TimeEDT,TemperatureF,Dew PointF,Humidity,Sea Level PressureIn,VisibilityMPH,Wind Direction,Wind SpeedMPH,Gust SpeedMPH,PrecipitationIn,Events,Conditions,WindDirDegrees,DateUTC
12:15 AM,39.2,35.6,87,30.31,10.0,NNE,4.6,-,N/A,,Clear,30,2012-10-09 04:15:00
12:35 AM,39.2,35.6,87,30.31,10.0,North,4.6,-,N/A,,Clear,10,2012-10-09 04:35:00
12:55 AM,37.4,35.6,93,30.31,10.0,Calm,Calm,-,N/A,,Clear,0,2012-10-09 04:55:00
1:15 AM,37.4,35.6,93,30.32,10.0,Calm,Calm,-,N/A,,Clear,0,2012-10-09 05:15:00
1:35 AM,37.4,35.6,93,30.31,10.0,NNE,3.5,-,N/A,,Clear,30,2012-10-09 05:35:00
1:55 AM,37.4,35.6,93,30.31,10.0,North,5.8,-,N/A,,Clear,10,2012-10-09 05:55:00
2:15 AM,37.4,33.8,87,30.32,10.0,NNE,4.6,-,N/A,,Clear,20,2012-10-09 06:15:00
2:35 AM,37.4,33.8,87,30.31,10.0,NNE,4.6,-,N/A,,Clear,30,2012-10-09 06:35:00
2:55 AM,37.4,33.8,87,30.32,10.0,NNE,3.5,-,N/A,,Clear,30,2012-10-09 06:55:00
3:15 AM,37.4,33.8,87,30.31,10.0,NNE,5.8,-,N/A,,Clear,20,2012-10-09 07:15:00
3:55 AM,37.4,33.8,87,30.31,10.0,North,4.6,-,N/A,,Clear,10,2012-10-09 07:55:00
4:15 AM,35.6,33.8,93,30.31,10.0,NNE,3.5,-,N/A,,Clear,20,2012-10-09 08:15:00
4:35 AM,35.6,32.0,87,30.32,10.0,North,4.6,-,N/A,,Clear,360,2012-10-09 08:35:00
5:15 AM,35.6,30.2,81,30.32,10.0,NNE,5.8,-,N/A,,Clear,20,2012-10-09 09:15:00
5:35 AM,35.6,30.2,81,30.32,10.0,North,6.9,-,N/A,,Clear,10,2012-10-09 09:35:00
5:55 AM,35.6,30.2,81,30.32,10.0,North,6.9,-,N/A,,Clear,360,2012-10-09 09:55:00
6:15 AM,35.6,30.2,81,30.32,10.0,North,5.8,-,N/A,,Clear,10,2012-10-09 10:15:00
6:35 AM,33.8,30.2,87,30.32,10.0,North,6.9,-,N/A,,Clear,10,2012-10-09 10:35:00
6:55 AM,33.8,30.2,87,30.32,10.0,North,8.1,-,N/A,,Clear,10,2012-10-09 10:55:00
7:15 AM,33.8,30.2,87,30.32,10.0,North,8.1,-,N/A,,Clear,360,2012-10-09 11:15:00
7:35 AM,35.6,30.2,81,30.33,10.0,North,8.1,-,N/A,,Clear,10,2012-10-09 11:35:00
7:55 AM,35.6,32.0,87,30.34,10.0,North,8.1,-,N/A,,Clear,10,2012-10-09 11:55:00
8:15 AM,37.4,33.8,87,30.34,10.0,North,8.1,-,N/A,,Clear,10,2012-10-09 12:15:00
8:35 AM,39.2,33.8,81,30.33,10.0,North,8.1,-,N/A,,Clear,10,2012-10-09 12:35:00
8:55 AM,39.2,33.8,81,30.33,10.0,North,8.1,-,N/A,,Clear,10,2012-10-09 12:55:00
9:15 AM,41.0,33.8,76,30.33,10.0,North,5.8,-,N/A,,Partly Cloudy,360,2012-10-09 13:15:00
9:35 AM,42.8,35.6,76,30.32,10.0,NNE,6.9,-,N/A,,Mostly Cloudy,20,2012-10-09 13:35:00
9:55 AM,44.6,33.8,66,30.32,10.0,NE,6.9,-,N/A,,Mostly Cloudy,50,2012-10-09 13:55:00
10:15 AM,46.4,35.6,66,30.32,10.0,NE,4.6,-,N/A,,Scattered Clouds,50,2012-10-09 14:15:00
10:35 AM,46.4,35.6,66,30.31,10.0,NNE,8.1,-,N/A,,Clear,30,2012-10-09 14:35:00
10:55 AM,48.2,37.4,66,30.31,10.0,NE,5.8,-,N/A,,Clear,50,2012-10-09 14:55:00
11:15 AM,51.8,37.4,58,30.31,10.0,NNE,5.8,-,N/A,,Clear,30,2012-10-09 15:15:00
11:35 AM,51.8,37.4,58,30.30,10.0,NE,5.8,-,N/A,,Clear,40,2012-10-09 15:35:00
11:55 AM,51.8,37.4,58,30.30,10.0,NE,3.5,-,N/A,,Mostly Cloudy,50,2012-10-09 15:55:00
12:15 PM,51.8,37.4,58,30.29,10.0,NE,4.6,-,N/A,,Mostly Cloudy,40,2012-10-09 16:15:00
12:35 PM,53.6,37.4,54,30.28,10.0,South,4.6,-,N/A,,Overcast,170,2012-10-09 16:35:00
12:55 PM,53.6,37.4,54,30.28,10.0,ESE,3.5,-,N/A,,Overcast,110,2012-10-09 16:55:00
1:15 PM,53.6,37.4,54,30.26,10.0,ENE,5.8,-,N/A,,Overcast,60,2012-10-09 17:15:00
1:35 PM,53.6,35.6,51,30.26,10.0,Calm,Calm,-,N/A,,Mostly Cloudy,0,2012-10-09 17:35:00
1:55 PM,53.6,37.4,54,30.25,9.0,SE,3.5,-,N/A,,Overcast,130,2012-10-09 17:55:00
2:15 PM,53.6,37.4,54,30.24,10.0,ENE,3.5,-,N/A,,Overcast,70,2012-10-09 18:15:00
2:35 PM,53.6,37.4,54,30.24,10.0,NE,4.6,-,N/A,,Overcast,50,2012-10-09 18:35:00
2:55 PM,53.6,37.4,54,30.24,10.0,East,3.5,-,N/A,,Overcast,100,2012-10-09 18:55:00
3:15 PM,53.6,37.4,54,30.23,10.0,East,4.6,-,N/A,,Overcast,90,2012-10-09 19:15:00
3:35 PM,53.6,37.4,54,30.22,10.0,Calm,Calm,-,N/A,,Overcast,0,2012-10-09 19:35:00
3:55 PM,53.6,37.4,54,30.22,10.0,Calm,Calm,-,N/A,,Overcast,0,2012-10-09 19:55:00
4:15 PM,53.6,37.4,54,30.21,10.0,ENE,4.6,-,N/A,,Overcast,60,2012-10-09 20:15:00
4:35 PM,53.6,37.4,54,30.20,10.0,Calm,Calm,-,N/A,,Overcast,0,2012-10-09 20:35:00
4:55 PM,53.6,37.4,54,30.20,10.0,Calm,Calm,-,N/A,,Overcast,0,2012-10-09 20:55:00
5:15 PM,53.6,37.4,54,30.20,10.0,Calm,Calm,-,N/A,,Overcast,0,2012-10-09 21:15:00
5:35 PM,51.8,39.2,62,30.20,10.0,Calm,Calm,-,N/A,,Overcast,0,2012-10-09 21:35:00
5:55 PM,50.0,39.2,66,30.19,10.0,Calm,Calm,-,N/A,,Overcast,0,2012-10-09 21:55:00
6:15 PM,48.2,39.2,71,30.19,10.0,Calm,Calm,-,N/A,,Partly Cloudy,0,2012-10-09 22:15:00
6:35 PM,46.4,39.2,76,30.18,4.0,Calm,Calm,-,N/A,,Clear,0,2012-10-09 22:35:00
6:55 PM,44.6,39.2,81,30.19,10.0,Calm,Calm,-,N/A,,Scattered Clouds,0,2012-10-09 22:55:00
7:15 PM,44.6,39.2,81,30.19,10.0,Calm,Calm,-,N/A,,Overcast,0,2012-10-09 23:15:00
7:35 PM,44.6,39.2,81,30.18,4.0,Calm,Calm,-,N/A,,Overcast,0,2012-10-09 23:35:00
7:55 PM,44.6,39.2,81,30.18,10.0,Calm,Calm,-,N/A,,Overcast,0,2012-10-09 23:55:00